Temp
64 64 63 63 63 62 63 63 62 61 61 60 60 60 61 62 62 61 60 59 59 60 60 60 61 61 69 68 71 75 71 71 73 76 73 72 70 66 61 62 65 61 65 69 68 68 66
63 63 63 62 62 62 63 62 61 60 60 60 60 60 60 61 61 60 60 59 59 59 59 60 61 61 66 62 77 76 76 73 74 72 74 73 70 70 65 63 60 66 64 65 67 68 66
63 63 62 62 62 62 62 61 61 61 60 60 60 60 60 60 60 60 59 59 58 58 59 60 61 66 62 68 74 72 76 73 76 76 71 74 72 69 65 63 66 65 61 65 66 66 64
63 63 62 61 61 61 60 60 60 60 60 60 60 60 59 59 59 58 58 58 58 59 60 60 61 62 61 77 72 75 72 75 78 77 75 75 72 67 62 65 63 58 56 53 65 65 65
63 63 62 61 61 60 60 60 60 60 60 60 60 59 59 58 58 57 57 57 58 59 60 60 59 59 61 76 74 79 78 74 74 75 75 82 70 62 63 53 50 53 47 51 59 64 63
63 62 62 61 61 60 60 60 59 60 60 59 60 59 59 58 58 56 54 57 60 59 62 66 69 58 66 68 74 78 75 77 72 71 70 66 60 54 52 51 43 47 48 46 50 61 62
62 62 62 62 61 61 61 60 59 59 59 59 59 59 58 58 58 56 56 63 61 59 62 60 62 63 67 74 76 75 77 73 70 67 55 59 53 49 54 55 57 54 51 50 52 61 59
61 61 61 61 61 61 61 61 59 59 59 59 59 59 59 58 57 56 56 60 59 60 51 64 64 65 71 70 65 71 76 66 63 56 58 55 50 59 60 59 56 54 51 50 56 62 58
59 60 61 61 61 61 61 61 59 59 59 59 58 58 58 57 56 57 60 60 65 62 50 59 63 63 66 68 63 66 70 66 60 55 55 51 58 63 60 58 55 53 51 51 52 59 55
59 58 60 61 61 60 61 60 59 58 58 58 58 57 56 56 58 60 59 64 62 61 44 53 59 65 68 68 61 71 72 68 59 57 57 55 62 60 56 55 57 48 58 56 54 51 46
58 58 58 60 60 59 59 59 59 58 58 57 57 57 56 56 57 57 62 62 61 59 34 60 61 73 68 63 64 66 70 65 58 59 57 55 55 55 54 58 59 56 61 57 55 48 46
58 58 58 58 58 58 58 58 57 58 57 56 56 56 56 58 56 59 61 61 60 44 34 55 63 60 60 62 63 64 64 67 65 58 56 57 62 60 59 61 61 62 56 54 50 48 40
57 57 57 57 57 57 58 58 57 57 56 56 55 56 56 59 54 58 59 56 42 35 57 53 56 61 59 57 57 59 58 54 52 46 45 53 54 58 62 54 58 56 48 38 37 36 36
57 57 57 57 56 56 57 57 57 56 56 55 54 55 57 60 58 57 54 47 35 48 49 58 58 57 54 58 58 58 54 51 54 52 46 45 45 56 60 58 54 52 50 38 33 33 37
57 57 56 56 56 56 56 56 56 56 55 54 54 53 55 58 59 56 49 37 40 46 54 52 54 51 51 56 55 55 53 52 55 56 48 45 47 59 62 61 60 52 46 52 43 41 36
57 57 56 56 56 55 55 55 55 55 55 54 52 52 52 60 60 53 45 42 43 52 54 54 46 50 45 49 51 51 52 55 55 58 57 52 45 56 59 61 60 55 57 44 40 33 32
56 57 56 55 55 55 55 55 55 54 54 54 52 49 55 61 59 50 41 44 48 54 55 51 48 46 48 46 49 48 50 54 56 57 57 53 48 49 55 51 49 51 47 46 45 39 30
56 56 55 55 55 54 54 54 54 54 53 52 50 43 55 60 46 47 43 51 51 51 53 52 51 49 48 49 47 48 50 50 57 55 51 51 47 41 45 54 56 52 49 47 33 37 32
55 55 55 55 54 54 54 54 54 53 54 49 47 47 55 54 41 42 49 49 51 49 50 49 48 51 51 47 42 47 50 56 57 54 49 51 44 36 41 47 52 47 49 49 44 38 35
51 54 54 55 54 54 54 54 53 53 54 50 45 39 47 50 48 47 45 46 46 52 51 51 50 51 48 45 49 47 49 54 56 54 51 52 45 41 34 41 45 42 46 48 43 30 34
51 54 54 54 54 54 54 54 54 54 53 50 42 39 43 39 44 43 46 45 44 45 51 52 47 49 47 40 43 44 49 51 55 54 52 49 41 42 43 46 46 45 44 45 43 43 36
51 52 53 53 54 54 54 53 53 54 53 44 39 39 40 38 46 47 44 44 44 47 47 46 45 49 48 43 45 43 47 47 49 51 48 48 38 40 32 44 44 42 44 44 45 45 44
51 51 53 53 53 54 53 53 53 53 52 41 41 43 43 39 41 43 44 44 45 48 49 51 49 46 44 49 52 52 54 53 51 49 46 44 38 35 33 40 40 34 40 44 44 47 47
51 50 54 54 53 54 53 53 53 53 52 45 44 46 39 30 39 43 48 48 47 46 46 49 49 47 52 55 55 53 51 53 51 51 49 42 39 33 30 35 23 42 49 50 46 49 49
51 50 53 54 54 53 53 53 52 53 52 45 45 48 41 33 40 42 44 46 49 48 47 47 49 53 54 51 44 41 42 45 48 48 47 46 38 31 30 28 37 44 47 46 44 44 48
51 51 53 53 53 53 53 52 52 53 53 46 45 50 45 38 36 44 43 44 38 39 40 45 52 52 49 42 38 33 33 38 39 43 44 44 42 37 29 26 27 39 49 51 49 36 47
51 52 52 52 53 52 52 52 52 54 52 47 44 49 45 39 39 40 39 39 43 39 36 42 46 44 46 35 35 34 31 44 34 35 35 33 34 34 29 30 35 46 52 52 34 37 45
51 52 52 52 52 52 52 52 52 54 53 50 43 45 47 37 39 42 43 40 40 38 34 40 41 40 35 38 38 30 31 37 37 40 37 35 33 31 31 32 32 49 48 41 44 44 47
50 52 52 52 52 51 52 51 52 53 54 52 43 46 47 42 36 41 43 44 44 43 40 39 41 41 40 40 36 39 34 36 34 30 41 36 38 34 36 36 46 49 49 50 49 47 47
MSLP
1018.01 1017.96 1018.55 1019.04 1019.64 1019.93 1020.15 1020.34 1020.48 1020.59 1020.53 1020.63 1020.58 1020.51 1020.27 1020.14 1019.65 1019.50 1019.19 1018.89 1018.49 1018.11 1017.83 1017.44 1016.71 1015.84 1014.71 1014.38 1013.31 1012.45 1012.70 1012.76 1012.52 1012.44 1012.72 1012.71 1012.66 1012.91 1013.20 1013.39 1013.08 1012.77 1012.61 1012.07 1011.78 1011.46 1011.18
1017.38 1017.40 1018.05 1018.69 1019.27 1019.61 1019.76 1020.19 1020.26 1020.41 1020.48 1020.50 1020.35 1020.30 1020.27 1019.98 1019.79 1019.39 1019.16 1018.78 1018.35 1018.07 1017.78 1017.54 1017.03 1016.33 1015.67 1014.56 1012.65 1012.64 1012.70 1012.91 1012.83 1012.71 1012.73 1012.73 1012.99 1013.00 1013.38 1013.44 1013.53 1013.20 1012.78 1012.30 1011.52 1010.95 1010.86
1016.50 1017.24 1017.58 1018.17 1018.82 1019.35 1019.54 1019.75 1020.02 1020.09 1020.39 1020.42 1020.33 1020.16 1020.06 1019.92 1019.69 1019.48 1019.04 1018.61 1018.09 1017.87 1017.48 1017.36 1017.09 1016.83 1016.10 1013.97 1012.68 1012.74 1012.74 1012.72 1012.63 1012.67 1012.67 1012.59 1012.72 1013.09 1013.42 1013.66 1013.55 1013.33 1013.12 1012.35 1011.79 1011.25 1010.96
1016.06 1016.33 1017.42 1017.52 1018.25 1018.96 1019.33 1019.50 1019.47 1019.88 1020.15 1020.34 1020.17 1020.11 1019.89 1019.85 1019.59 1019.37 1018.90 1018.30 1017.71 1017.50 1017.13 1016.95 1016.98 1016.86 1015.32 1012.84 1012.85 1012.76 1012.83 1012.73 1012.44 1012.48 1012.64 1012.58 1012.66 1013.15 1013.62 1013.82 1013.94 1014.08 1013.83 1013.50 1012.26 1011.88 1011.52
1015.55 1015.93 1016.55 1017.13 1017.43 1018.50 1018.79 1019.20 1019.35 1019.47 1019.91 1020.14 1020.06 1020.01 1019.78 1019.76 1019.62 1019.22 1018.62 1017.88 1017.18 1016.99 1016.94 1016.95 1016.95 1016.71 1014.83 1012.87 1012.66 1012.13 1012.36 1012.56 1012.44 1012.45 1012.55 1012.83 1013.00 1013.74 1014.26 1014.83 1015.23 1015.09 1014.72 1014.12 1013.08 1012.37 1012.06
1014.87 1015.21 1015.88 1016.48 1016.90 1017.79 1018.20 1018.57 1019.12 1019.25 1019.67 1019.75 1019.98 1019.84 1019.78 1019.64 1019.56 1019.15 1018.53 1017.41 1016.53 1016.90 1016.93 1016.93 1016.74 1016.75 1014.40 1013.14 1012.56 1012.15 1012.16 1012.27 1012.58 1012.76 1013.11 1013.43 1014.25 1014.83 1015.52 1015.70 1016.18 1015.77 1015.13 1014.46 1013.98 1013.14 1012.76
1013.93 1014.41 1015.12 1015.71 1016.37 1017.12 1017.40 1018.13 1018.69 1019.05 1019.38 1019.47 1020.10 1019.76 1019.62 1019.56 1019.53 1019.29 1018.62 1017.17 1017.42 1017.24 1017.02 1016.89 1016.37 1015.49 1014.12 1013.15 1012.63 1012.21 1012.27 1012.34 1012.68 1013.25 1013.98 1014.44 1015.24 1015.53 1015.53 1015.61 1015.47 1015.43 1015.23 1014.67 1014.01 1013.39 1013.58
1013.18 1013.43 1014.31 1015.00 1015.56 1016.34 1016.85 1017.72 1018.22 1018.53 1018.93 1019.58 1019.60 1019.65 1019.62 1019.67 1019.44 1019.48 1019.10 1018.72 1018.82 1019.09 1017.80 1015.97 1015.52 1015.15 1013.88 1013.74 1013.55 1012.43 1012.42 1012.86 1013.07 1013.76 1014.40 1015.08 1015.22 1014.90 1015.09 1015.15 1015.19 1015.01 1014.90 1014.63 1014.08 1013.66 1013.87
1012.46 1012.75 1013.44 1014.16 1014.89 1015.63 1016.27 1017.07 1017.54 1017.86 1018.33 1018.94 1019.30 1019.50 1019.61 1019.73 1019.19 1019.21 1018.81 1019.06 1018.45 1018.63 1018.43 1015.39 1014.38 1014.03 1013.28 1013.54 1013.28 1012.46 1012.65 1013.02 1013.36 1014.00 1014.65 1015.09 1014.57 1014.46 1014.69 1014.46 1014.66 1014.56 1014.57 1014.39 1014.43 1014.15 1014.36
1011.88 1012.35 1012.84 1013.45 1014.23 1015.02 1015.76 1016.44 1017.10 1017.48 1018.07 1018.70 1019.22 1019.57 1019.50 1019.85 1019.45 1019.24 1018.83 1018.57 1018.53 1018.75 1018.16 1015.30 1013.87 1012.54 1012.65 1012.56 1012.70 1011.87 1012.22 1012.93 1013.50 1013.82 1014.49 1014.73 1014.00 1014.15 1014.26 1014.16 1014.06 1014.25 1014.10 1014.28 1014.57 1014.94 1015.32
1011.32 1011.82 1012.19 1012.89 1013.64 1014.33 1015.30 1015.84 1016.37 1017.12 1017.71 1018.49 1019.12 1019.38 1019.54 1019.54 1019.50 1018.92 1018.65 1018.50 1018.42 1018.71 1017.67 1014.24 1012.83 1011.68 1012.03 1012.56 1012.40 1011.95 1011.93 1012.64 1013.23 1013.87 1014.40 1014.26 1013.90 1013.73 1013.87 1013.64 1013.70 1013.83 1013.89 1014.27 1014.81 1015.59 1016.09
1010.92 1011.12 1011.77 1012.41 1013.00 1013.87 1014.61 1015.34 1015.90 1016.79 1017.35 1018.20 1018.71 1019.15 1019.50 1019.40 1019.51 1018.87 1018.81 1018.74 1018.72 1018.68 1016.68 1014.11 1012.73 1012.22 1012.48 1012.60 1012.52 1012.21 1012.12 1012.29 1013.01 1013.88 1014.13 1014.05 1013.35 1013.24 1013.05 1013.12 1013.32 1013.54 1014.11 1014.83 1015.84 1016.44 1017.14
1010.24 1010.82 1011.08 1012.06 1012.67 1013.08 1013.93 1014.79 1015.60 1016.30 1016.89 1017.75 1018.52 1018.91 1019.58 1019.45 1019.20 1018.82 1018.73 1018.60 1019.18 1018.46 1015.95 1015.11 1014.20 1013.40 1013.14 1012.98 1012.86 1012.62 1012.75 1013.07 1013.61 1014.38 1014.36 1013.84 1013.30 1012.78 1012.60 1013.20 1013.52 1014.07 1015.14 1016.42 1017.44 1018.02 1018.39
1009.51 1010.30 1011.01 1011.51 1012.17 1012.72 1013.35 1014.06 1014.86 1015.73 1016.53 1017.49 1018.20 1018.88 1019.12 1018.95 1018.92 1018.66 1018.84 1019.43 1019.11 1017.73 1016.55 1015.63 1014.85 1014.38 1013.89 1013.31 1013.26 1013.25 1013.49 1013.69 1013.76 1014.09 1014.55 1014.25 1013.53 1012.83 1012.45 1012.84 1013.60 1014.44 1015.44 1016.96 1017.99 1018.99 1019.14
1008.90 1009.70 1010.35 1011.14 1011.81 1012.37 1012.92 1013.55 1014.32 1015.14 1015.96 1016.99 1018.28 1019.01 1019.26 1018.56 1018.65 1018.94 1019.48 1019.74 1018.73 1018.20 1017.21 1016.43 1015.53 1015.27 1014.73 1014.12 1014.18 1013.83 1014.01 1013.99 1013.86 1013.98 1014.37 1014.27 1013.81 1012.91 1012.60 1012.75 1013.49 1014.73 1015.71 1016.53 1017.94 1019.28 1020.12
1008.26 1009.06 1009.94 1010.71 1011.47 1011.98 1012.72 1013.14 1013.79 1014.65 1015.23 1016.83 1017.95 1018.82 1018.89 1018.18 1018.57 1019.26 1019.75 1019.40 1018.84 1018.25 1017.72 1017.18 1016.70 1016.40 1016.03 1015.43 1014.83 1014.65 1014.66 1014.76 1014.42 1014.26 1014.12 1014.59 1014.32 1013.76 1013.32 1013.43 1014.04 1014.50 1015.65 1016.97 1018.41 1020.12 1020.98
1007.66 1008.51 1009.47 1010.28 1011.13 1011.54 1012.40 1012.84 1013.63 1014.49 1015.09 1016.39 1017.71 1018.64 1018.10 1018.14 1018.45 1019.25 1019.26 1019.07 1018.81 1018.31 1017.86 1017.63 1017.32 1017.09 1016.78 1016.30 1015.94 1015.56 1015.61 1015.48 1015.19 1014.92 1014.60 1014.91 1015.21 1015.03 1014.48 1014.74 1014.91 1015.42 1016.23 1017.57 1018.92 1020.37 1021.16
1007.00 1007.97 1008.81 1009.79 1010.67 1011.05 1011.91 1012.49 1013.29 1014.22 1015.70 1016.29 1017.16 1018.10 1017.83 1017.60 1018.74 1018.71 1018.60 1018.38 1018.23 1018.19 1018.05 1017.86 1017.66 1017.55 1017.33 1016.81 1016.46 1016.36 1016.18 1015.95 1015.58 1015.51 1015.69 1015.95 1016.29 1016.44 1016.21 1015.81 1015.59 1015.80 1016.70 1017.89 1019.78 1020.90 1021.53
1006.33 1007.25 1008.20 1009.23 1010.14 1010.73 1011.49 1012.40 1013.06 1013.86 1015.08 1015.91 1016.95 1017.89 1017.84 1018.01 1018.08 1018.15 1018.04 1018.14 1018.16 1018.21 1018.05 1017.88 1017.84 1017.52 1017.15 1017.42 1017.30 1016.81 1016.49 1016.39 1016.01 1016.24 1016.41 1016.54 1017.26 1017.73 1017.47 1016.98 1016.43 1016.68 1017.30 1018.12 1019.30 1020.47 1021.33
1006.14 1006.34 1007.55 1008.57 1009.56 1010.33 1011.12 1011.98 1012.91 1013.71 1014.53 1015.38 1017.07 1017.99 1018.24 1018.29 1017.96 1017.61 1018.20 1018.24 1018.28 1017.78 1017.77 1017.59 1017.58 1017.69 1017.46 1017.82 1017.68 1017.33 1016.97 1016.80 1016.55 1016.75 1016.98 1017.00 1017.79 1018.12 1018.19 1017.72 1017.56 1017.66 1017.77 1018.31 1019.45 1020.70 1020.91
1005.91 1006.03 1006.89 1007.82 1008.92 1009.90 1010.73 1011.77 1012.83 1013.41 1014.08 1015.28 1016.61 1017.32 1017.25 1017.25 1017.37 1017.79 1018.04 1017.89 1017.98 1018.04 1017.71 1017.52 1017.81 1017.73 1017.72 1018.32 1018.21 1017.75 1017.41 1017.20 1017.05 1016.98 1017.36 1017.85 1018.74 1018.95 1018.81 1018.63 1018.38 1018.31 1018.39 1018.69 1019.29 1019.70 1020.04
1005.19 1005.65 1006.07 1007.33 1008.38 1009.38 1010.46 1011.30 1012.31 1013.17 1014.20 1015.13 1016.24 1017.24 1017.49 1017.14 1016.97 1017.83 1017.95 1017.51 1017.57 1017.98 1017.83 1017.63 1017.55 1017.59 1017.67 1017.98 1017.94 1017.87 1017.67 1017.59 1017.41 1017.60 1018.05 1018.76 1019.47 1019.73 1020.18 1019.69 1019.13 1018.74 1018.26 1018.42 1018.64 1018.80 1018.79
1004.69 1005.17 1005.41 1006.56 1007.82 1008.72 1009.89 1010.86 1011.72 1012.83 1013.68 1015.07 1015.77 1016.22 1016.24 1017.10 1017.34 1017.82 1016.94 1017.53 1017.31 1017.70 1017.49 1017.26 1017.25 1017.49 1017.79 1017.33 1017.42 1017.55 1017.57 1017.38 1017.30 1017.93 1018.56 1019.41 1020.56 1021.07 1021.10 1020.60 1019.90 1019.04 1017.81 1017.60 1017.43 1017.45 1017.66
1004.08 1004.47 1004.71 1005.94 1007.14 1008.12 1009.29 1010.38 1011.57 1012.48 1012.80 1013.97 1015.08 1015.71 1016.78 1017.45 1017.21 1016.84 1017.01 1017.26 1017.49 1017.39 1017.60 1017.28 1017.30 1017.22 1017.11 1016.97 1017.26 1017.60 1017.84 1018.05 1018.14 1018.25 1018.82 1019.88 1020.75 1021.29 1022.05 1021.37 1020.37 1017.91 1017.39 1017.07 1017.16 1016.71 1016.67
1003.40 1003.93 1003.92 1005.19 1006.43 1007.52 1008.64 1009.85 1011.03 1012.17 1013.02 1013.85 1014.63 1015.50 1016.44 1017.38 1017.30 1017.48 1017.18 1017.24 1017.49 1017.54 1017.96 1017.54 1017.14 1017.19 1017.02 1017.55 1018.59 1018.84 1018.76 1018.52 1018.54 1018.66 1019.27 1019.68 1020.94 1022.30 1022.57 1022.24 1020.22 1017.85 1016.62 1016.66 1016.66 1016.20 1016.20
1002.63 1003.13 1003.24 1004.48 1005.76 1006.84 1008.14 1009.42 1010.48 1012.02 1013.06 1013.93 1014.71 1015.01 1016.06 1016.75 1017.84 1017.40 1017.43 1017.41 1017.77 1017.96 1018.32 1017.76 1017.28 1017.23 1017.58 1018.59 1019.54 1019.81 1019.55 1019.35 1019.32 1019.26 1019.71 1020.50 1020.85 1021.75 1022.93 1022.62 1020.40 1017.98 1016.70 1016.34 1016.31 1016.42 1016.07
1001.45 1001.90 1002.56 1003.79 1005.09 1006.28 1007.53 1008.95 1010.28 1011.64 1012.97 1013.80 1014.74 1014.61 1015.77 1017.03 1017.97 1017.77 1017.52 1017.53 1017.61 1018.13 1018.28 1018.14 1017.96 1018.10 1017.99 1019.15 1020.30 1020.61 1020.21 1019.46 1019.54 1019.89 1020.71 1021.10 1021.84 1022.00 1022.16 1021.25 1018.77 1017.10 1016.39 1016.32 1016.99 1016.87 1016.46
999.89 1000.73 1001.74 1002.95 1004.40 1005.66 1007.08 1008.66 1009.80 1011.21 1012.38 1013.21 1015.07 1014.71 1015.46 1017.47 1018.30 1018.12 1017.94 1017.87 1018.02 1018.23 1018.39 1018.07 1018.76 1018.57 1019.00 1019.72 1020.48 1020.69 1020.38 1019.72 1019.57 1019.47 1020.03 1020.71 1021.37 1021.77 1021.61 1020.65 1018.48 1016.41 1016.74 1016.88 1016.41 1016.29 1016.40
998.66 999.58 1000.91 1002.48 1003.89 1005.19 1006.63 1008.06 1009.42 1010.90 1012.07 1012.96 1015.12 1015.18 1015.34 1017.47 1018.83 1018.76 1018.48 1018.13 1018.05 1018.08 1018.19 1018.23 1018.26 1018.49 1018.63 1019.36 1020.36 1020.36 1020.71 1020.14 1019.91 1019.81 1019.40 1019.98 1019.34 1019.68 1019.78 1018.07 1016.65 1016.05 1015.73 1015.46 1015.78 1016.12 1016.53
Wind_Speed
17 16 14 13 12 11 11 10 8 8 7 7 7 7 7 10 10 11 12 13 14 15 15 16 19 19 8 6 6 2 4 3 3 4 4 5 6 4 3 4 7 2 4 8 6 7 4
17 17 16 15 13 12 12 11 9 7 7 7 7 7 8 9 11 11 12 13 14 14 15 14 16 17 3 4 2 5 4 1 1 2 5 4 2 3 3 4 2 5 4 8 7 9 5
20 17 18 15 14 13 13 11 9 8 8 8 8 7 8 9 11 12 13 14 15 14 15 12 11 3 1 12 3 0 3 2 1 2 2 2 1 5 2 7 3 5 8 8 6 6 4
20 21 18 18 15 13 12 11 10 8 8 9 8 8 7 9 11 12 14 16 18 14 14 10 4 1 8 5 2 3 4 5 4 4 2 3 0 1 1 3 8 6 4 5 6 10 5
22 21 21 19 18 16 13 12 11 9 9 10 9 8 7 9 11 13 15 19 18 11 5 1 2 2 9 9 4 5 7 4 2 3 2 2 3 3 6 4 5 6 1 3 9 5 4
23 23 22 19 17 16 14 12 13 12 10 9 9 8 7 8 11 12 17 16 10 3 2 2 1 3 5 2 3 3 3 3 1 2 6 3 5 4 4 5 1 2 3 3 4 7 7
27 25 25 23 21 20 17 14 12 12 11 8 11 7 7 8 10 9 10 6 7 5 5 4 3 4 4 6 3 3 0 4 3 5 1 3 4 5 6 5 4 4 3 3 4 4 4
28 26 23 23 21 20 18 16 14 12 11 11 8 8 7 7 9 8 1 4 2 3 9 9 13 10 13 3 5 4 1 1 3 4 3 5 5 8 3 5 6 6 3 4 4 4 1
18 23 25 24 24 21 20 20 18 15 13 10 9 6 6 7 9 4 3 1 3 1 3 9 5 6 5 11 9 6 4 4 3 2 3 5 7 2 3 6 3 3 4 3 4 4 1
17 19 24 24 21 20 21 20 17 14 12 11 8 7 4 11 2 2 3 3 2 3 4 8 4 6 4 7 3 6 9 6 2 7 6 6 7 5 3 3 5 3 4 3 1 4 2
18 18 19 22 22 21 20 19 18 16 14 11 9 7 5 5 2 1 0 5 4 1 3 3 3 2 3 5 1 4 4 4 7 4 6 8 2 3 4 5 4 7 4 3 3 3 2
19 18 19 18 22 21 20 18 17 16 15 13 10 7 2 1 1 3 5 5 2 6 6 6 1 1 3 1 2 1 3 4 4 4 3 8 4 4 7 3 3 2 2 6 5 3 0
19 18 17 19 21 21 22 21 19 17 16 14 12 7 3 1 3 4 4 4 5 4 5 5 4 4 2 2 1 3 3 3 5 3 2 4 3 4 4 2 3 4 5 4 4 5 4
21 19 17 16 16 18 21 24 22 22 19 17 12 7 4 3 2 3 4 5 4 2 2 3 3 7 4 3 3 4 3 1 3 3 2 2 6 4 1 6 7 2 6 6 2 2 3
22 20 19 17 16 16 19 23 24 24 22 18 13 2 2 2 2 3 6 3 7 3 3 6 5 2 4 4 1 3 5 5 2 6 5 3 2 3 5 3 7 3 2 3 5 3 3
23 23 19 19 19 20 19 19 22 24 23 21 5 4 2 3 5 4 4 4 4 3 1 4 2 3 2 5 4 2 3 4 2 2 2 2 2 2 1 4 6 4 4 2 3 2 3
23 24 22 22 22 21 21 23 22 22 22 13 4 5 2 7 3 2 4 6 5 5 2 1 2 2 3 2 2 5 4 3 5 6 5 2 3 4 2 2 4 2 1 5 5 4 5
25 25 24 23 22 22 22 23 24 24 22 4 4 4 1 4 4 3 4 7 3 3 4 5 2 3 3 3 3 4 1 2 6 2 2 1 4 2 0 3 3 1 2 4 6 4 1
25 27 26 25 23 22 23 22 24 26 16 6 6 3 2 2 6 5 3 4 4 3 5 5 8 6 3 2 1 1 2 2 7 5 2 1 1 3 7 7 4 2 3 3 5 4 6
15 29 27 26 25 24 23 22 23 27 18 5 4 4 2 4 2 6 7 6 10 5 4 5 6 4 3 2 2 4 2 3 4 3 1 4 2 5 8 5 3 3 2 3 5 4 4
17 26 27 27 27 27 26 26 26 28 19 5 2 4 5 8 10 4 8 6 13 10 6 8 4 6 6 4 3 4 1 0 2 3 4 4 2 0 1 1 1 3 4 3 5 5 6
17 17 28 28 28 27 26 26 27 27 11 5 6 5 2 0 9 17 10 14 13 10 6 6 5 8 6 7 8 7 5 3 4 2 2 3 3 2 3 5 2 6 7 8 9 7 8
18 17 29 29 29 29 29 29 29 27 10 3 1 1 5 1 5 14 14 10 14 9 6 5 7 6 5 11 8 7 6 3 3 6 5 4 5 3 4 3 4 7 9 8 4 5 7
20 17 29 31 31 31 30 30 27 26 9 5 3 4 4 2 5 11 13 12 10 10 9 2 4 6 7 4 5 5 4 4 4 4 4 5 4 3 3 3 3 7 4 5 8 10 8
22 20 30 31 32 32 32 30 28 27 11 5 3 4 4 3 4 4 7 7 7 5 3 3 2 6 7 5 4 3 4 2 2 6 5 4 5 3 4 4 7 9 4 3 4 8 5
24 27 32 32 33 33 32 29 30 29 14 5 2 3 3 7 4 0 6 6 5 5 3 4 1 3 5 4 4 6 6 4 5 2 6 5 3 5 3 3 6 6 5 1 1 7 5
26 30 32 33 34 33 32 31 31 30 15 6 3 3 4 5 1 2 4 5 4 3 3 4 3 3 2 4 3 4 5 4 5 6 5 3 2 6 2 5 9 6 10 3 3 9 4
33 34 34 34 34 34 34 33 33 31 18 6 1 3 5 4 2 4 3 4 3 2 6 5 5 3 3 5 6 4 4 7 5 6 7 8 7 4 2 4 13 5 4 6 8 3 6
25 37 36 35 34 34 34 33 33 30 20 9 4 3 4 5 4 1 2 2 2 2 4 3 3 1 3 4 1 3 2 2 4 5 2 7 8 8 11 9 4 4 6 5 5 5 6
Wind_Direction
202 188 192 196 203 206 213 218 223 231 241 259 279 297 309 314 316 319 323 325 325 327 331 332 330 328 359 7 262 96 109 31 347 6 22 4 42 11 1 316 334 122 324 316 291 285 226
199 190 191 195 204 207 207 218 221 233 247 253 264 284 301 309 311 316 318 317 314 320 321 326 325 320 12 314 319 123 108 17 315 30 356 37 359 290 323 312 16 302 273 292 282 278 219
193 200 193 195 199 210 205 204 217 225 241 254 264 278 295 302 310 315 314 311 307 312 307 313 315 332 24 242 54 130 166 238 207 209 296 243 149 36 350 327 325 303 347 335 327 319 310
205 190 202 191 192 203 208 208 202 222 235 249 255 270 285 301 308 311 311 307 302 301 297 293 288 287 247 265 307 236 158 288 261 252 257 286 173 83 103 314 356 17 40 4 311 350 350
205 199 196 197 189 200 197 200 209 206 226 241 253 259 281 299 307 312 309 304 300 302 282 235 100 132 268 314 277 263 161 205 221 293 305 328 49 77 19 61 9 6 347 341 322 352 354
206 198 197 194 189 192 194 195 211 202 220 233 245 256 279 294 305 314 315 292 294 332 85 195 314 22 278 285 311 288 185 153 197 43 10 54 43 55 34 67 236 286 338 319 301 318 11
213 200 197 193 192 195 188 195 206 203 208 226 240 249 277 293 308 329 344 355 8 352 33 240 255 262 260 283 306 301 289 107 104 63 140 357 68 234 227 208 205 235 231 275 255 276 345
214 199 199 194 189 191 185 194 197 200 193 215 233 250 268 289 301 306 112 78 107 230 304 252 243 250 254 49 304 272 64 100 141 193 119 11 255 243 262 214 226 234 250 280 292 282 199
211 204 197 196 193 191 190 195 192 193 191 207 221 250 271 288 285 290 87 170 331 115 269 286 209 221 213 153 224 224 163 170 181 168 158 192 238 337 267 296 196 240 199 245 242 317 33
196 204 203 197 191 190 188 187 185 185 185 193 208 219 249 277 32 249 156 288 336 219 24 283 267 259 168 151 233 191 193 154 194 193 204 228 267 237 237 265 144 243 198 225 241 67 237
198 191 199 194 192 185 186 184 182 180 178 182 183 205 254 6 289 109 337 335 290 60 354 251 199 165 147 146 265 336 161 83 185 190 108 241 238 217 184 219 157 227 201 180 188 164 90
199 196 196 197 190 185 179 176 173 176 170 168 170 193 281 71 354 277 309 265 85 52 253 322 52 125 123 312 350 71 83 65 158 175 227 236 243 207 209 218 199 153 45 40 37 107 68
190 189 183 191 188 184 185 181 179 176 164 159 168 174 187 161 210 293 282 53 53 169 323 333 358 357 265 229 247 167 139 137 153 120 245 321 240 263 150 136 7 81 59 344 355 22 224
192 195 188 180 187 182 188 184 182 171 160 158 151 153 233 227 294 359 49 62 185 236 238 340 20 298 192 174 252 169 130 182 216 101 125 121 339 359 163 171 179 160 144 156 226 183 241
193 190 188 185 183 182 182 183 177 167 155 140 128 95 272 249 181 62 80 115 204 228 348 359 334 10 351 8 359 150 171 192 188 176 160 151 266 323 68 104 125 175 117 185 113 15 74
190 187 185 187 189 173 172 169 167 159 143 140 131 137 224 171 147 80 96 216 223 200 37 7 51 46 340 329 28 39 173 356 49 52 169 204 83 340 352 70 24 119 156 74 10 175 246
189 186 186 181 185 172 166 158 153 139 139 146 90 138 194 164 101 78 177 192 223 233 167 154 306 320 311 20 19 347 357 20 14 329 47 79 99 290 47 28 176 14 60 57 105 137 169
189 191 185 178 176 168 164 157 151 144 147 97 121 140 218 168 131 193 171 162 178 228 199 229 259 228 232 333 22 24 65 331 339 289 86 6 129 158 308 335 328 107 146 123 121 220 105
193 190 188 180 176 173 163 160 152 146 161 121 125 130 72 30 191 178 145 175 192 220 201 183 212 206 181 202 272 335 84 349 26 39 74 84 28 63 351 348 3 83 71 104 100 73 192
245 181 184 182 177 170 165 161 161 159 170 100 102 135 139 187 167 181 164 194 219 213 213 165 217 173 125 224 274 206 172 14 13 69 352 88 114 160 189 204 169 242 159 118 115 108 197
231 187 179 177 174 170 164 161 164 167 169 113 114 210 191 198 193 155 180 189 208 220 227 172 227 194 145 183 187 224 307 271 13 14 42 89 166 135 171 307 322 269 227 228 195 197 179
216 217 178 176 173 169 165 162 166 172 136 83 128 138 11 34 151 190 193 206 201 215 182 222 182 187 175 176 189 198 159 200 221 97 121 11 231 114 309 321 308 258 256 240 237 220 237
218 237 179 177 175 169 166 167 169 166 133 115 215 68 109 173 153 187 206 198 205 191 249 221 178 134 181 229 198 211 206 217 174 167 173 147 137 98 263 345 321 302 232 224 229 217 223
223 242 184 180 176 171 168 169 170 173 146 125 162 110 101 219 182 197 181 188 185 201 218 242 176 148 222 114 120 82 164 237 293 248 159 140 114 102 202 29 306 244 289 231 231 249 229
224 232 185 181 177 173 171 171 166 173 147 100 135 121 135 120 146 165 180 176 208 225 213 234 239 211 154 81 57 37 358 37 292 241 218 166 125 129 156 200 299 298 278 27 249 275 211
224 220 180 181 177 172 170 166 162 169 148 95 88 117 125 123 225 40 176 164 163 204 232 243 342 84 67 96 115 176 201 163 218 223 29 92 49 139 130 169 242 244 260 337 137 283 201
218 205 179 179 176 171 166 163 163 164 143 117 123 140 96 103 355 8 153 156 129 146 184 171 173 196 72 126 143 169 226 197 184 176 183 94 33 213 165 226 278 230 266 13 122 241 165
204 190 180 178 174 167 165 164 163 164 146 108 121 337 105 94 337 29 20 129 100 126 153 204 76 308 56 179 195 203 180 216 187 177 172 168 174 198 122 221 262 199 88 182 219 275 172
202 181 176 175 169 163 162 162 162 163 156 110 93 355 89 82 177 283 302 45 41 179 137 355 131 88 183 110 103 93 226 180 166 240 145 221 188 186 184 208 232 210 205 216 188 184 210